Regional Weather Roundup
Issued by NWS

Home | Current Version | Previous Version | Graphics & Text | Print | Product List | Glossary On
Versions: 1 2 3 4 5 6 7 8 9 10 11 12 13 14 15 16 17 18 19 20 21 22 23 24 25 26 27 28 29 30 31 32 33 34 35 36 37 38 39 40 41 42 43 44 45 46 47 48 49 50
000
ASUS45 KBOU 061807
RWRCO

WEATHER ROUNDUP FOR COLORADO
NATIONAL WEATHER SERVICE DENVER/BOULDER CO
1200 PM MDT WED MAY 06 2015

NOTE: "FAIR" INDICATES FEW OR NO CLOUDS BELOW 12000 FEET WITH NO
SIGNIFICANT WEATHER AND/OR OBSTRUCTIONS TO VISIBILITY.

COZ001>005-013-030-031-061900-
...NORTHWEST COLORADO...

CITY           SKY/WX    TMP DP  RH WIND       PRES   REMARKS
CRAIG          LGT RAIN  51  46  83 SW13      29.82F
HAYDEN         CLOUDY    46  39  76 W10       29.83S
MEEKER         LGT RAIN  49  44  83 CALM      29.84F
MOUNT WERNER   NOT AVBL
STEAMBOAT SPGS CLOUDY    45  42  91 SW8       29.84R
WALDEN         CLOUDY    45  37  76 W3        29.83S
$$

COZ006>008-011-061900-
...WEST CENTRAL VALLEYS...

CITY           SKY/WX    TMP DP  RH WIND       PRES   REMARKS
GRAND JUNCTION PTSUNNY   61  49  64 VRB5      29.78F
MONTROSE       CLOUDY    58  45  62 E6        29.86S THUNDER
EAGLE          LGT RAIN  48  43  81 SW20      29.87S
RIFLE          LGT RAIN  51  47  86 NE7       29.84F
DELTA          CLOUDY    57  51  81 S8        29.85R THUNDER
NUCLA          CLOUDY    55  43  62 S15       29.90F THUNDER
$$

COZ017>023-064>068-061900-
...SOUTHWEST COLORADO...

CITY           SKY/WX    TMP DP  RH WIND       PRES   REMARKS
DURANGO        PTSUNNY   56  43  61 W17G30    29.94S
CORTEZ         PTSUNNY   58  45  62 SW9       29.92F
PAGOSA SPRINGS CLOUDY    49  43  79 W3        29.97S
TELLURIDE      CLOUDY    44  37  78 W10G16    30.02R
WOLF CREEK PAS NOT AVBL
$$

COZ009-010-012-014-032>034-037-058>063-061900-
...CENTRAL COLORADO...

CITY           SKY/WX    TMP DP  RH WIND       PRES   REMARKS
ASPEN          LGT RAIN  45  39  79 N8        29.90R
BUENA VISTA    NOT AVBL
COPPER MTN     CLOUDY    37  34  87 W12G21    30.01R
BERTHOUD PASS  CLOUDY    28  21  74 NW18G31   30.01R WCI  16
COTTONWOOD PAS CLOUDY    50  36  57 NW3       29.92F
GUNNISON       PTSUNNY   52  37  58 W14G21    29.91S
KREMMLING      CLOUDY    50  37  62 W12       29.86S
LEADVILLE      CLOUDY    41  35  79 NW14      29.92S
SALIDA         CLOUDY    60  39  46 SW21G29   29.90S
SUNLIGHT       SNOW      36  36 100 CALM      30.02R VSB 1/2
WILKERSON PASS CLOUDY    37  36  93 SW5       29.99R VSB 3/4
$$

COZ069>075-061900-
...SAN LUIS VALLEY/SANGRE DE CRISTO MOUNTAINS...

CITY           SKY/WX    TMP DP  RH WIND       PRES   REMARKS
ALAMOSA        PTSUNNY   61  38  42 SW10      29.86F
LA VETA PASS   LGT RAIN N/A N/A N/A MISG      29.95R
SAGUACHE       TSTM      50  41  71 W16G23    29.90S
$$

COZ035-036-038>040-061900-
...NORTHERN COLORADO FRONT RANGE...

CITY           SKY/WX    TMP DP  RH WIND       PRES   REMARKS
DENVER INTL AP CLOUDY    57  48  72 N6        29.72S
DMNS CITY PARK   N/A     61  49  65 NE8       29.71S
AURORA         PTSUNNY   57  48  71 NE6       29.73S
FRONT RANGE AP CLOUDY    59  52  77 NW8       29.73S
ERIE MUNI ARPT CLOUDY    58  49  72 CALM      29.71S
BOULDER MUN AP CLOUDY    59  48  67 SE3       29.70F
CENTENNIAL     PTSUNNY   60  46  59 N5        29.72F
BROOMFIELD     NOT AVBL
FORT COLLINS   CLOUDY    57  46  67 SW5       29.71F
LONGMONT       CLOUDY    63  49  60 CALM      29.71F
$$

COZ041-046-047-076>085-087-088-061900-
...PIKES PEAK/PALMER DIVIDE AND SOUTHERN FOOTHILLS...

CITY           SKY/WX    TMP DP  RH WIND       PRES   REMARKS
COLO. SPRINGS  CLOUDY    53  48  83 SE6       29.76S
A. F. ACADEMY  MOSUNNY   57  47  68 SE10      29.74F
ELLICOTT       CLOUDY   N/A N/A N/A SW12      29.74S
FALCON         CLOUDY    55  46  71 CALM      29.79R THUNDER
FORT CARSON    CLOUDY    53  49  87 VRB3      29.73S
LIMON          CLOUDY    57  48  72 W6        29.72S
MONUMENT HILL  PTSUNNY   55  43  62 NW8       29.76S
TRINIDAD       SUNNY     67  40  37 W6        29.75F
$$

COZ042>045-048>051-090-091-061900-
...NORTHEAST COLORADO...

CITY           SKY/WX    TMP DP  RH WIND       PRES   REMARKS
GREELEY ARPT     N/A    N/A N/A N/A MISG        N/A
AKRON          HVY RAIN  53  52  96 NW13G24   29.65S FOG
BURLINGTON     LGT RAIN  59  52  77 W18       29.69S
WRAY           CLOUDY    64  51  64 SW13      29.65S
STERLING       CLOUDY    61  54  77 NW14      29.60F
HOLYOKE        NOT AVBL
FORT MORGAN    LGT RAIN  56  53  89 W16G22    29.67S
$$

COZ086-089-092>099-061900-
...SOUTHEAST COLORADO...

CITY           SKY/WX    TMP DP  RH WIND       PRES   REMARKS
PUEBLO         CLOUDY    61  51  70 SW7       29.70F
LA JUNTA       PTSUNNY   64  52  64 S5        29.70S
LAMAR          CLOUDY    63  55  75 VRB3      29.68S
SPRINGFIELD      N/A     71  51  49 SE12G20   29.71R
$$



USA.gov is the U.S. government's official web portal to all federal, state and local government web resources and services.